Regional Weather Roundup
Issued by NWS

Home | Current Version | Previous Version | Text Only | Print | Product List | Glossary Off
Versions: 1 2 3 4 5 6 7 8 9 10 11 12 13 14 15 16 17 18 19 20 21 22 23 24 25 26 27 28 29 30 31 32 33 34 35 36 37 38 39 40 41 42 43 44 45 46 47 48 49 50

000
ASUS45 KSLC 050010
RWRUT

UTAH REGIONAL WEATHER ROUNDUP
NATIONAL WEATHER SERVICE SALT LAKE CITY UT
500 PM MST WED MAR 04 2015

UTZ001>011-023>025-050100-

NORTHERN UTAH

CITY           SKY/WX    TMP DP  RH WIND       PRES   REMARKS
BRIGHAM CITY   CLOUDY    38  18  44 S9        30.25S WCI  31
HILL AFB       SUNNY     35  13  40 SW8       30.23R WCI  29
LOGAN          PTSUNNY   37  17  44 S6        30.22R WCI  32
OGDEN          MOSUNNY   36  17  46 VRB3      30.23R
PROVO AIRPORT  MOSUNNY   37  18  44 SW5       30.23S WCI  34
SALT LAKE CITY MOSUNNY   38  19  46 NW8       30.25R WCI  32
VERNAL         SUNNY     34  15  46 NE6       30.13R WCI  29
WENDOVER       SUNNY     43  18  36 SE7       30.23S
HEBER CITY     SUNNY     34  19  55 SW7       30.18R WCI  28
WEST JORDAN    SUNNY     36  18  48 N7        30.24S WCI  30

$$

UTZ012>022-026-027-050100-

SOUTHERN/CENTRAL UTAH

CITY           SKY/WX    TMP DP  RH WIND       PRES   REMARKS
BLANDING       SUNNY     35  16  47 NW15      30.18R WCI  25
BRYCE CANYON   SUNNY     27  11  51 N9        30.15R WCI  18
CEDAR CITY     SUNNY     34  19  54 N10       30.18R WCI  26
DELTA          SUNNY     38  15  37 CALM      30.23R
HANKSVILLE     SUNNY     45  14  29 NW6       30.15S
MILFORD        SUNNY     39  19  44 N12       30.21R WCI  32
MOAB/CYNLANDS  SUNNY     43  11  27 W6        30.11R
PRICE          SUNNY     36  13  38 NW15G25   30.11R WCI  27
ST GEORGE      CLEAR     52  19  28 CALM      30.19R

$$

REGIONAL REPORTS     COLORADO/ARIZONA

CITY           SKY/WX    TMP DP  RH WIND       PRES   REMARKS
CRAIG, CO      SUNNY     24   4  42 NW9       30.16R WCI  14
GRAND JUNCTION PTSUNNY   40   8  26 NW9       30.11R WCI  34
RIFLE          PTSUNNY   34   9  35 N12G20    30.14R WCI  25
MONTROSE       MOSUNNY   35  16  45 NW15G23   30.12R WCI  25
CORTEZ         SUNNY     37  18  46 NW14      30.08R WCI  28
PAGE, AZ       SUNNY     47  13  25 SE5       30.14R
GRAND CANYON   SUNNY     39   9  29 NE5       30.14R
KINGMAN        SUNNY     53  25  33 N17       30.11R
FLAGSTAFF      SUNNY     37  13  37 NE6       30.12R WCI  32

$$

REGIONAL REPORTS    NEVADA/IDAHO/WYOMING

CITY           SKY/WX    TMP DP  RH WIND       PRES   REMARKS
LAS VEGAS, NV  SUNNY     59  13  16 NE9       30.12S
ELY            SUNNY     38  13  35 NE14      30.18R WCI  30
ELKO           SUNNY     44  15  31 SW9       30.19S
POCATELLO, ID  SUNNY     35  12  38 VRB5      30.23S WCI  31
EVANSTON, WY   MOSUNNY   25  12  58 W14       30.14R WCI  13
ROCK SPRINGS   NOT AVBL

$$



USA.gov is the U.S. government's official web portal to all federal, state and local government web resources and services.